Terminal Aerodrome Forecast
Issued by NWS

Home | Current Version | Previous Version | Text Only | Print | Product List | Glossary On
Versions: 1 2 3 4 5 6 7 8 9 10 11 12 13 14 15 16 17 18 19 20 21 22 23 24 25
000
FTUS45 KGJT 230346 AAA
TAFASE
TAF AMD
KASE 230346Z 2304/2324 00000KT 2SM -SN VCSH OVC028
     FM230800 20007KT 3SM -SHSN BR OVC015 WS020/23030KT
     FM231000 21008KT 1 1/2SM -SHSN BR OVC008 WS020/23035KT
     FM231600 20012G22KT 3SM -SHSN BR OVC015 WS020/24045KT
     FM231800 20011KT 1SM -SN BR OVC015=

USA.gov is the U.S. government's official web portal to all federal, state and local government web resources and services.